Location: The Saddle
(36.8333°N, 80.3417°W)
Time: 05:25:30
(UTC-05:00)

SR - All Passes

Search period start: 31 January 2023 00:00
Search period end: 10 February 2023 00:00
Orbit: 581 x 870 km, 66.7° (Epoch: 30 January)

Date Brightness Start Highest point End Pass type
(mag) Time Alt. Az. Time Alt. Az. Time Alt. Az.
31 Jan - 00:54:22 10° NNW 00:58:38 84° WSW 01:02:52 10° SSE night (unlit)
31 Jan - 13:42:40 10° SE 13:44:35 12° ESE 13:46:28 10° E daylight
31 Jan - 15:20:44 10° SSW 15:26:05 75° WNW 15:31:00 10° NNE daylight
31 Jan - 17:08:21 10° NW 17:08:45 10° NW 17:09:11 10° NW daylight
01 Feb - 00:04:08 10° NNW 00:08:09 39° ENE 00:12:07 10° SE night (unlit)
01 Feb - 01:47:13 10° WNW 01:49:43 15° WSW 01:52:14 10° SW night (unlit)
01 Feb - 14:30:30 10° S 14:35:41 51° ESE 14:40:29 10° NE daylight
01 Feb - 16:14:05 10° W 16:17:52 20° NW 16:21:27 10° N daylight
01 Feb - 23:14:30 10° N 23:17:28 18° NE 23:20:24 10° E night (unlit)
02 Feb - 00:55:37 10° NW 00:59:32 37° WSW 01:03:28 10° S night (unlit)
02 Feb - 13:41:13 10° SSE 13:45:24 23° ESE 13:49:21 10° ENE daylight
02 Feb - 15:22:16 10° SW 15:27:12 39° WNW 15:31:47 10° NNE daylight
03 Feb - 00:04:57 10° NNW 00:09:12 84° ENE 00:13:28 10° SSE night (unlit)
03 Feb - 12:54:43 10° ESE 12:55:15 10° ESE 12:55:46 10° E daylight
03 Feb - 14:31:21 10° SSW 14:36:41 84° WNW 14:41:36 10° NNE daylight
03 Feb - 16:17:45 10° WNW 16:19:16 11° NW 16:20:45 10° NNW daylight
03 Feb - 23:14:48 10° N 23:18:42 34° ENE 23:22:35 10° ESE night (unlit)
04 Feb - 00:57:29 10° WNW 01:00:21 18° WSW 01:03:12 10° SSW night (unlit)
04 Feb - 13:41:14 10° S 13:46:18 45° ESE 13:51:00 10° NE daylight
04 Feb - 15:24:26 10° WSW 15:28:25 22° NW 15:32:11 10° N daylight
04 Feb - 22:25:18 10° N 22:27:59 16° NE 22:30:38 10° E night (unlit)
05 Feb - 00:06:07 10° NW 00:10:09 43° WSW 00:14:11 10° S night (unlit)
05 Feb - 12:52:10 10° SSE 12:56:02 21° ESE 12:59:43 10° ENE daylight
05 Feb - 14:32:45 10° SW 14:37:46 44° WNW 14:42:24 10° NNE daylight
05 Feb - 23:15:32 10° NNW 23:19:47 73° ENE 23:24:02 10° SSE night (unlit)
06 Feb - 13:41:58 10° SSW 13:47:16 87° ESE 13:52:10 10° NNE daylight
06 Feb - 15:27:42 10° WNW 15:29:46 12° NW 15:31:48 10° NNW daylight
06 Feb - 22:25:28 10° N 22:29:14 30° NE 22:33:00 10° ESE night (unlit)
07 Feb - 00:07:49 10° WNW 00:10:58 20° WSW 00:14:08 10° SSW night (unlit)
07 Feb - 12:51:59 10° S 12:56:54 39° ESE 13:01:29 10° NE daylight
07 Feb - 14:34:47 10° WSW 14:38:57 24° NW 14:42:53 10° N daylight
07 Feb - 21:36:08 10° NNE 21:38:29 14° NE 21:40:49 10° E night (unlit)
07 Feb - 23:16:37 10° NW 23:20:43 50° WSW 23:24:52 10° S night (unlit)
08 Feb - 12:03:08 10° SSE 12:06:39 18° ESE 12:10:01 10° ENE daylight
08 Feb - 13:43:16 10° SW 13:48:20 49° WNW 13:53:01 10° NNE daylight
08 Feb - 22:26:07 10° NNW 22:30:20 63° ENE 22:34:34 10° SE night (unlit)
09 Feb - 12:52:35 10° SSW 12:57:52 77° ESE 13:02:42 10° NNE daylight
09 Feb - 14:37:46 10° W 14:40:17 14° NW 14:42:42 10° NNW daylight
09 Feb - 21:36:08 10° N 21:39:46 27° NE 21:43:23 10° ESE night (unlit)
09 Feb - 23:18:11 10° WNW 23:21:33 23° WSW 23:24:58 10° SSW night (unlit)
